Location: Ffm
(50.0000°N, 8.5000°E)
Time: 10:32:43
(UTC+01:00)

ISS - Visible Passes

Search period start: 27 October 2020 00:00
Search period end: 06 November 2020 00:00
Orbit: 417 x 420 km, 51.6° (Epoch: 27 October)

Date Brightness Start Highest point End Pass type
(mag) Time Alt. Az. Time Alt. Az. Time Alt. Az.
27 Oct -1.0 04:21:42 16° ESE 04:21:42 16° ESE 04:23:11 10° E visible
27 Oct -3.6 05:54:40 16° WSW 05:57:12 71° SSE 06:00:34 10° ENE visible
28 Oct -3.3 05:09:06 48° S 05:09:29 52° SSE 05:12:46 10° ENE visible
29 Oct -1.3 04:23:27 22° E 04:23:27 22° E 04:24:56 10° E visible
29 Oct -3.8 05:56:24 22° W 05:58:28 76° NNW 06:01:50 10° ENE visible
30 Oct -3.9 05:10:41 90° SSE 05:10:41 90° SSE 05:14:03 10° ENE visible
31 Oct -1.2 04:24:55 22° ENE 04:24:55 22° ENE 04:26:16 10° ENE visible
31 Oct -3.6 05:57:52 23° WNW 05:59:47 63° N 06:03:08 10° E visible
01 Nov -3.7 05:12:04 66° N 05:12:04 66° N 05:15:19 10° ENE visible
02 Nov -1.1 04:26:15 21° ENE 04:26:15 21° ENE 04:27:31 10° ENE visible
02 Nov -3.7 05:59:12 24° WNW 06:01:06 69° N 06:04:27 10° E visible
03 Nov -3.6 05:13:23 63° NNE 05:13:23 63° NNE 05:16:37 10° E visible
03 Nov -3.5 06:46:47 10° WNW 06:50:07 64° SSW 06:53:27 10° ESE visible
04 Nov -1.1 04:27:34 20° ENE 04:27:34 20° ENE 04:28:46 10° E visible
04 Nov -3.8 06:00:31 25° WNW 06:02:21 84° SSW 06:05:43 10° ESE visible
05 Nov -3.7 05:14:43 75° ENE 05:14:43 75° ENE 05:17:54 10° E visible
